Weather History for New Bern, NC

Change the Weather History Date:

Monday, January 13, 2014

  Actual Average Record
Temperature  
Mean Temperature 50 °F 44 °F  
Max Temperature 67 °F 54 °F 78 °F (2005)
Min Temperature 33 °F 34 °F 8 °F (1981)
Degree Days  
Heating Degree Days 15 21  
Month to date heating degree days 255 273  
Since 1 July heating degree days 1108 1267  
Cooling Degree Days 0 0  
Month to date cooling degree days 1 0  
Year to date cooling degree days 1 0  
Moisture  
Dew Point 41 °F    
Average Humidity 68    
Maximum Humidity 96    
Minimum Humidity 40    
Precipitation  
Precipitation T in 0.14 in 2.51 in (1975)
Month to date precipitation 2.38 1.71  
Year to date precipitation 2.38 1.71  
Snow  
Snow 0.00 in - - ()
Month to date snowfall 0.0  
Since 1 July snowfall T  
Snow Depth 0.00 in    
Sea Level Pressure  
Sea Level Pressure 30.15 in    
Wind  
Wind Speed 4 mph (South)    
Max Wind Speed 16 mph    
Max Gust Speed 22 mph    
Visibility 10 miles    
Events Rain    
T = Trace of Precipitation, MM = Missing Value Source: NWS Daily Summary

Daily Weather History Graph

Daily Weather History Graph

Search for Another Location

Airport:

Trip Planner

Search our weather history database for the weather conditions in past years. The results will help you decide how hot, cold, wet, or windy it might be!

Date:

Astronomy

Jan. 13, 2014 Rise Set
Actual Time 7:16 AM EST 5:17 PM EST
Civil Twilight 6:48 AM EST 5:45 PM EST
Nautical Twilight 6:17 AM EST 6:16 PM EST
Astronomical Twilight 5:46 AM EST 6:47 PM EST
Moon 3:30 PM EST (1/13) 5:04 AM EST (1/13)
Length of Visible Light 10h 56m
Length of Day
10h 01m
Waxing Gibbous, 95% of the Moon is Illuminated
Jan 13
Waxing Gibbous
Jan 15
Full
Jan 24
Last Quarter
Jan 30
New
Feb 6
First Quarter

Hourly Weather History & Observations

Time (EST) Temp. Dew Point Humidity Pressure Visibility Wind Dir Wind Speed Gust Speed Precip Events Conditions
12:54 AM 36.0 °F 34.0 °F 93% 30.20 in 10.0 mi Calm Calm - N/A   Clear
1:54 AM 35.1 °F 33.1 °F 92% 30.21 in 10.0 mi Calm Calm - N/A   Clear
2:54 AM 36.0 °F 33.1 °F 89% 30.21 in 10.0 mi Calm Calm - N/A   Clear
3:54 AM 34.0 °F 32.0 °F 92% 30.21 in 10.0 mi Calm Calm - N/A   Clear
4:54 AM 35.1 °F 33.1 °F 92% 30.21 in 10.0 mi Calm Calm - N/A   Clear
5:54 AM 33.1 °F 30.9 °F 92% 30.21 in 10.0 mi Calm Calm - N/A   Clear
6:54 AM 34.0 °F 32.0 °F 92% 30.22 in 10.0 mi Calm Calm - N/A   Clear
7:54 AM 35.1 °F 33.1 °F 92% 30.24 in 10.0 mi Calm Calm - N/A   Clear
8:54 AM 46.0 °F 41.0 °F 83% 30.25 in 10.0 mi Calm Calm - N/A   Clear
9:54 AM 55.9 °F 43.0 °F 62% 30.25 in 10.0 mi SSW 4.6 mph - N/A   Clear
10:54 AM 61.0 °F 37.9 °F 42% 30.22 in 10.0 mi South 6.9 mph - N/A   Clear
11:54 AM 64.0 °F 39.9 °F 41% 30.18 in 10.0 mi SSW 9.2 mph 19.6 mph N/A   Clear
12:54 PM 66.0 °F 43.0 °F 43% 30.13 in - SW 11.5 mph - N/A   Clear
1:54 PM 66.0 °F 45.0 °F 47% 30.12 in 10.0 mi South 11.5 mph - N/A   Clear
2:54 PM 64.9 °F 46.0 °F 50% 30.10 in 10.0 mi South 12.7 mph 19.6 mph N/A   Clear
3:54 PM 63.0 °F 46.9 °F 56% 30.10 in 10.0 mi South 8.1 mph - N/A   Clear
4:54 PM 61.0 °F 46.9 °F 60% 30.09 in 10.0 mi South 6.9 mph - N/A   Clear
5:54 PM 57.0 °F 46.9 °F 69% 30.08 in 10.0 mi South 4.6 mph - N/A   Clear
6:54 PM 52.0 °F 46.0 °F 80% 30.05 in 10.0 mi SSE 3.5 mph - N/A   Clear
7:54 PM 54.0 °F 46.9 °F 77% 30.06 in 10.0 mi South 3.5 mph - N/A   Mostly Cloudy
8:54 PM 54.0 °F 46.0 °F 75% 30.06 in 10.0 mi SSE 5.8 mph - N/A   Clear
9:54 PM 51.1 °F 46.9 °F 86% 30.05 in 10.0 mi Calm Calm - N/A   Scattered Clouds
10:54 PM 51.1 °F 46.9 °F 86% 30.03 in 10.0 mi Calm Calm - N/A   Mostly Cloudy
11:54 PM 53.1 °F 48.9 °F 86% 30.01 in 10.0 mi ESE 3.5 mph - 0.00 in Rain Light Rain